This demonstration page uses our WeatherBlox Daily Observations layout. Learn more.

Left ArrowRight Arrow

39.01783, -85.05884

Hourly Observations for November 17, 2018

Temp ( °F °C ) Dew Point ( °F °C ) Humidity (%) Winds ( mph kmh ) Pressure ( in mb ) Visibility ( mi km ) Precip ( " mm )
12:52 am 00:52 Cloudy 38 3.3 34 1.1 86 86 WSW 5 7 30.19 1022 7 11 0.00 0.00
1:52 am 01:52 Cloudy 38 3.3 34 1.1 86 86 WSW 3 6 30.20 1023 7 11 0.00 0.00
2:52 am 02:52 Cloudy 37 2.8 33 0.6 86 86 W 5 7 30.21 1023 7 11 0.00 0.00
3:52 am 03:52 Cloudy 37 2.8 33 0.6 86 86 NW 3 6 30.22 1023 8 13 0.00 0.00
4:52 am 04:52 Cloudy 37 2.8 32 0 82 82 S 3 6 30.23 1024 8 13 0.00 0.00
5:52 am 05:52 Cloudy 37 2.8 32 0 82 82 Calm 30.25 1024 8 13 0.00 0.00
6:52 am 06:52 Cloudy 37 2.8 33 0.6 86 86 Calm 30.25 1025 8 13 0.00 0.00
7:52 am 07:52 Cloudy with Mist and Fog 37 2.8 33 0.6 86 86 Calm 30.27 1025 6 10 0.00 0.00
8:52 am 08:52 Cloudy with Haze 38 3.3 32 0 79 79 SE 8 13 30.27 1025 6 10 0.00 0.00
9:52 am 09:52 Cloudy with Haze 39 3.9 33 0.6 79 79 SSE 8 13 30.28 1025 6 10 0.00 0.00
10:52 am 10:52 Cloudy with Haze 40 4.4 34 1.1 79 79 S 8 13 30.28 1025 6 10 0.00 0.00
11:52 am 11:52 Cloudy with Haze 41 5 34 1.1 76 76 SSW 5 7 30.27 1025 6 10 0.00 0.00
12:52 pm 12:52 Cloudy 43 6.1 36 2.2 76 76 S 10 17 30.25 1024 7 11 0.00 0.00
1:52 pm 13:52 Mostly Cloudy with Haze 42 5.6 34 1.1 73 73 SE 7 11 30.24 1024 6 10 0.00 0.00
2:29 pm 14:29 Hazy 43 6.1 35 1.7 74 74 SE 3 6 30.24 1024 6 10 0.00 0.00
2:52 pm 14:52 Hazy 44 6.7 36 2.2 73 73 S 5 7 30.24 1024 6 10 0.00 0.00
3:52 pm 15:52 Partly Cloudy 44 6.7 35 1.7 71 71 Calm 30.23 1024 7 11 0.00 0.00
4:52 pm 16:52 Mostly Cloudy 44 6.7 35 1.7 71 71 Calm 30.24 1024 7 11 0.00 0.00
5:52 pm 17:52 Mostly Cloudy 42 5.6 35 1.7 76 76 Calm 30.24 1024 8 13 0.00 0.00
6:52 pm 18:52 Mostly Cloudy 41 5 35 1.7 79 79 Calm 30.24 1024 8 13 0.00 0.00
7:52 pm 19:52 Mostly Cloudy 40 4.4 34 1.1 79 79 E 6 9 30.24 1024 8 13 0.00 0.00
8:52 pm 20:52 Mostly Cloudy 40 4.4 34 1.1 79 79 E 6 9 30.24 1024 7 11 0.00 0.00
9:52 pm 21:52 Mostly Cloudy with Haze 40 4.4 35 1.7 83 83 ENE 5 7 30.24 1024 6 10 0.00 0.00
10:52 pm 22:52 Mostly Cloudy with Haze 40 4.4 35 1.7 83 83 ENE 6 9 30.23 1024 6 10 0.00 0.00
11:52 pm 23:52 Mostly Cloudy with Mist and Fog 38 3.3 34 1.1 86 86 ENE 7 11 30.23 1024 6 10 0.00 0.00

Powered by AerisWeather